Location: Moneta
(37.1826°N, 79.6196°W)
Time: 20:49:45
(UTC+00:00)

BlueWalker 3 - Visible Passes

Search period start: 02 February 2023 00:00
Search period end: 12 February 2023 00:00
Orbit: 499 x 517 km, 53.2° (Epoch: 01 February)

Date Brightness Start Highest point End Pass type
(mag) Time Alt. Az. Time Alt. Az. Time Alt. Az.
06 Feb 4.3 23:56:58 10° NNE 23:57:17 10° NNE 23:57:36 10° NNE visible
07 Feb 4.3 23:37:40 10° N 23:38:20 10° NNE 23:38:59 10° NNE visible
08 Feb 4.7 01:14:16 10° NNW 01:14:43 13° NNW 01:14:43 13° NNW visible
08 Feb 4.2 23:18:30 10° N 23:19:22 11° NNE 23:20:14 10° NNE visible
09 Feb 4.0 00:55:15 10° NNW 00:56:47 21° NNW 00:56:47 21° NNW visible
10 Feb 3.0 00:36:13 10° NW 00:38:58 34° N 00:38:58 34° N visible
11 Feb 2.4 00:17:11 10° NW 00:20:54 42° NE 00:21:15 41° NE visible
